Powrót do katalogu

FREGAT DEB

LostUNKNOWN
NORAD 45887·DEBRIS·🇷🇺 Russia

Wystrzelony Jul 18, 2011 z Baikonur Cosmodrome

Loading…

Następne Przeloty (najbliższe 24 godziny)

TLE

NieaktualneSource: Space-Track

Epoka: Jul 8, 2023, 19:15 UTC

1 45887U 11037DG  23189.80258542  .00331117  00000-0  52944+0 0  9990
2 45887  52.0185 337.4297 1380153 157.4120 350.5773 11.59529448123397

Śledź FREGAT DEB w czasie rzeczywistym z AllMySat

Download on the App Store